Showing default

JAY-D1, 62669

Orbit data source: Space-Track

JAY-D1, 62669 is a Canadian payload satellite in SSO that was launched on Tue, 14 Jan 2025 UTC via an FALCON 9 launch vehicle from the Air Force Western Test Range (AFWTR). Payload-class satellites include a variety of spacecraft equipped with specific instruments for various scientific and technological missions. These include communications satellites like Starlink; space stations such as the ISS; scientific satellites like the Hubble; Earth observation satellites from companies like Planet Labs, Umbra, and HawkEye 360; GPS; miniature CubeSats for education and research; and military/defense satellites.

Loading next visibility...
Identifier
62669, 2025-009BN
Orbit
SSO
Country
Flag of CACA
Related business
Manufacturer
UTIAS-SFL
Mission
Operational Commercial Imaging
Bus & Motor
DEFIANT, Unknown motor
Mass
~35 kg wet, ~35 kg dry
Launch date (UTC)
2025-01-14 (1 year ago)
Launch vehicle
FALCON 9
Launch site
Air Force Western Test Range (AFWTR)
Object type
Payload
Rocket body
Debris
Shape & HBR
Box + 2 Pan, 0.5 m
Radar Cross Section
0.165 m², Medium (>0.1 m² and < 1m²)

Expand to show TLE details & history
Last TLE update: 4 hours ago

TLE from 4 hours ago
0 JAY-D1
1 62669U 25009BN  26125.19154301  .00004563  00000-0  20239-3 0  9992
2 62669  97.4032 205.2149 0006510 124.7280 235.4570 15.22071198129830
Epoch: 2026-05-05T04:35Z
TLE epoch observation values (Epoch: 2026-05-05T04:35:49.316Z)
Latitude
-0.00002°
Longitude
-86.81051°
Altitude
505.229 km
Speed
7.61 km/s
True Right ascension
13h 40m 51s
True Declination
0° 00' 00"
Sunlit
Object was in full shadow at epoch
Visualization orbit readout
Latitude
Unknown
Longitude
Unknown
Altitude
Unknown
Speed
Unknown
Apparent Right ascension
Unknown
Apparent Declination
Unknown
Sunlit
N/A
Visualization observer readout
Local Sidereal Time
16:46:46
Azimuth
Unknown
Elevation
Unknown
Doppler factor
Unknown
Orbital elements
Apogee altitude
501.033 km
Perigee altitude
492.082 km
Semi-major axis
6,874.694 km
Eccentricity
0.00065
Inclination
97.4032°
RAAN
205.2149°
Arg. of periapsis
124.728°
True anomaly
235.39558°
Mean anomaly
235.457°
Eccentric anomaly
235.42629°
Mean motion
3.8077 °/min
Orbital period
94.55 mins
BSTAR
0.00020239
Loading maneuver chart data...
Computing Atmospheric mass density...
Loading historical data...
Loading historical data...
Loading historical data...
Loading historical data...
Loading historical data...
Loading historical data...
Loading historical data...

Documentation

Showing up to 5 results
|